QFA427 YSSY-YMML

Flight info

Callsign QFA427
Flight time 1h 9m
Altitude 40000
Route MARUB7/34R WOL H65 LEECE Q29 ML
Aircraft A332/H-SDE3GHIJ2J3J5M1RVWXY/LB2D1

Departure

Time 2026-05-04 09:37
Airport Sydney Kingsford Smith International Airport (YSSY)

Arrival

Time 2026-05-04 10:47
Airport Melbourne Airport (YMML)
Time Latitude Longitude Altitude Speed Heading
2026-05-04 08:46 -33.93100 151.17673 34 ft 0 kts 188°
2026-05-04 09:12 -33.93098 151.17674 34 ft 2 kts 188°
2026-05-04 09:12 -33.93073 151.17679 32 ft 4 kts 193°
2026-05-04 09:14 -33.93035 151.17711 32 ft 0 kts 298°
2026-05-04 09:25 -33.93450 151.17587 34 ft 21 kts 188°
2026-05-04 09:25 -33.93597 151.17615 33 ft 22 kts 166°
2026-05-04 09:26 -33.93707 151.17673 34 ft 12 kts 159°
2026-05-04 09:26 -33.93818 151.17710 33 ft 22 kts 154°
2026-05-04 09:26 -33.93965 151.17796 33 ft 28 kts 168°
2026-05-04 09:26 -33.94173 151.17849 33 ft 26 kts 167°
2026-05-04 09:27 -33.94352 151.17895 34 ft 27 kts 168°
2026-05-04 09:27 -33.94536 151.17886 34 ft 27 kts 175°
2026-05-04 09:27 -33.94722 151.17933 34 ft 28 kts 167°
2026-05-04 09:27 -33.94912 151.17984 34 ft 28 kts 167°
2026-05-04 09:28 -33.95087 151.18048 34 ft 25 kts 134°
2026-05-04 09:28 -33.95076 151.18229 34 ft 22 kts 79°
2026-05-04 09:28 -33.95051 151.18378 34 ft 7 kts 78°
2026-05-04 09:28 -33.95048 151.18392 34 ft 0 kts 78°
2026-05-04 09:31 -33.95048 151.18395 34 ft 3 kts 78°
2026-05-04 09:31 -33.95049 151.18473 34 ft 15 kts 110°
2026-05-04 09:31 -33.95161 151.18594 34 ft 28 kts 137°
2026-05-04 09:31 -33.95329 151.18721 34 ft 29 kts 165°
2026-05-04 09:32 -33.95531 151.18774 33 ft 30 kts 168°
2026-05-04 09:32 -33.95738 151.18828 34 ft 31 kts 167°
2026-05-04 09:34 -33.97115 151.19165 34 ft 17 kts 127°
2026-05-04 09:34 -33.97108 151.19298 31 ft 18 kts 76°
2026-05-04 09:34 -33.97024 151.19363 29 ft 14 kts 353°
2026-05-04 09:34 -33.97004 151.19357 28 ft 0 kts 345°
2026-05-04 09:35 -33.96852 151.19315 28 ft 57 kts 348°
2026-05-04 09:35 -33.96248 151.19161 30 ft 118 kts 348°
2026-05-04 09:35 -33.95335 151.18914 353 ft 142 kts 350°
2026-05-04 09:37 -33.93823 151.28195 4193 ft 268 kts 82°
2026-05-04 09:37 -33.93751 151.30487 4769 ft 278 kts 82°
2026-05-04 09:38 -33.93670 151.32905 4978 ft 305 kts 83°
2026-05-04 09:38 -33.93576 151.35583 4990 ft 331 kts 83°
2026-05-04 09:38 -33.93648 151.38394 4981 ft 341 kts 97°
2026-05-04 09:38 -33.94538 151.41061 5146 ft 350 kts 121°
2026-05-04 09:39 -33.96239 151.43162 5697 ft 362 kts 145°
2026-05-04 09:39 -33.98504 151.44522 6506 ft 365 kts 160°
2026-05-04 09:39 -34.00926 151.45450 7360 ft 366 kts 170°
2026-05-04 09:39 -34.02607 151.45697 7916 ft 366 kts 182°
2026-05-04 09:40 -34.05893 151.44835 9075 ft 360 kts 212°
2026-05-04 09:40 -34.07840 151.43051 9943 ft 355 kts 229°
2026-05-04 09:40 -34.08981 151.41632 10446 ft 357 kts 232°
2026-05-04 09:40 -34.10666 151.39395 11172 ft 362 kts 233°
2026-05-04 09:41 -34.12365 151.37112 11849 ft 368 kts 233°
2026-05-04 09:42 -34.24886 151.20448 16222 ft 394 kts 233°
2026-05-04 09:43 -34.26736 151.17986 16803 ft 396 kts 233°
2026-05-04 09:43 -34.28578 151.15534 17346 ft 399 kts 233°
2026-05-04 09:43 -34.30453 151.13036 17863 ft 402 kts 233°
2026-05-04 09:43 -34.32334 151.10528 18342 ft 404 kts 233°
2026-05-04 09:44 -34.34232 151.07996 18733 ft 407 kts 233°
2026-05-04 09:44 -34.36124 151.05473 19415 ft 401 kts 233°
2026-05-04 09:44 -34.37972 151.03012 20501 ft 390 kts 234°
2026-05-04 09:46 -34.50639 150.86026 24609 ft 396 kts 236°
2026-05-04 09:46 -34.52495 150.83532 25032 ft 398 kts 236°
2026-05-04 09:46 -34.54336 150.81057 25438 ft 401 kts 236°
2026-05-04 09:47 -34.56161 150.78451 25846 ft 400 kts 239°
2026-05-04 09:47 -34.57848 150.75809 26220 ft 400 kts 241°
2026-05-04 09:49 -34.69488 150.56349 28768 ft 415 kts 242°
2026-05-04 09:49 -34.71191 150.53513 29132 ft 417 kts 242°
2026-05-04 09:49 -34.72905 150.50657 29465 ft 419 kts 242°
2026-05-04 09:51 -34.83323 150.33275 31325 ft 428 kts 242°
2026-05-04 09:51 -34.85077 150.30331 31575 ft 430 kts 242°
2026-05-04 09:51 -34.86832 150.27380 31931 ft 430 kts 242°
2026-05-04 09:51 -34.88582 150.24439 32428 ft 426 kts 242°
2026-05-04 09:52 -34.90312 150.21534 32939 ft 422 kts 243°
2026-05-04 09:52 -34.92033 150.18643 33399 ft 419 kts 243°
2026-05-04 09:52 -34.93740 150.15771 33873 ft 416 kts 243°
2026-05-04 09:52 -34.95430 150.12927 34289 ft 413 kts 243°
2026-05-04 09:53 -34.97109 150.10095 34658 ft 412 kts 243°
2026-05-04 09:53 -34.98791 150.07251 34908 ft 413 kts 243°
2026-05-04 09:53 -35.00449 150.04445 35160 ft 414 kts 243°
2026-05-04 09:53 -35.02134 150.01594 35442 ft 414 kts 243°
2026-05-04 09:54 -35.03814 149.98748 35726 ft 413 kts 243°
2026-05-04 09:54 -35.05493 149.95905 36074 ft 412 kts 243°
2026-05-04 09:54 -35.07167 149.93072 36386 ft 411 kts 243°
2026-05-04 09:54 -35.08845 149.90227 36672 ft 411 kts 243°
2026-05-04 09:55 -35.10512 149.87397 36970 ft 410 kts 243°
2026-05-04 09:55 -35.12180 149.84565 37292 ft 410 kts 243°
2026-05-04 09:55 -35.13819 149.81777 37525 ft 410 kts 243°
2026-05-04 09:55 -35.15487 149.78939 37772 ft 410 kts 243°
2026-05-04 09:56 -35.17154 149.76099 38033 ft 410 kts 243°
2026-05-04 09:56 -35.18819 149.73262 38302 ft 410 kts 243°
2026-05-04 09:56 -35.20482 149.70427 38598 ft 409 kts 243°
2026-05-04 09:56 -35.22141 149.67595 38841 ft 409 kts 243°
2026-05-04 09:57 -35.23783 149.64791 39008 ft 410 kts 242°
2026-05-04 09:57 -35.25442 149.61952 39193 ft 410 kts 242°
2026-05-04 09:57 -35.27108 149.59102 39419 ft 411 kts 242°
2026-05-04 09:57 -35.28771 149.56253 39597 ft 411 kts 242°
2026-05-04 09:58 -35.30439 149.53394 39774 ft 412 kts 242°
2026-05-04 09:58 -35.32103 149.50540 39974 ft 412 kts 242°
2026-05-04 09:58 -35.33774 149.47670 40067 ft 415 kts 242°
2026-05-04 10:00 -35.45778 149.26999 40075 ft 428 kts 242°
2026-05-04 10:00 -35.47503 149.24021 40072 ft 428 kts 242°
2026-05-04 10:04 -35.70950 148.83296 40103 ft 381 kts 244°
2026-05-04 10:04 -35.73972 148.77978 40081 ft 382 kts 243°
2026-05-04 10:05 -35.77025 148.72609 40077 ft 382 kts 243°
2026-05-04 10:05 -35.80076 148.67243 40081 ft 382 kts 243°
2026-05-04 10:06 -35.83124 148.61883 40071 ft 382 kts 243°
2026-05-04 10:06 -35.86153 148.56546 40095 ft 382 kts 243°
2026-05-04 10:08 -35.96777 148.37711 40077 ft 384 kts 243°
2026-05-04 10:08 -35.99835 148.32252 40102 ft 395 kts 243°
2026-05-04 10:09 -36.03002 148.26586 40074 ft 406 kts 243°
2026-05-04 10:09 -36.06257 148.20770 40074 ft 416 kts 243°
2026-05-04 10:10 -36.09574 148.14838 40077 ft 426 kts 242°
2026-05-04 10:10 -36.12984 148.08735 40083 ft 434 kts 242°
2026-05-04 10:11 -36.16434 148.02579 40076 ft 433 kts 242°
2026-05-04 10:11 -36.19843 147.96485 40076 ft 433 kts 242°
2026-05-04 10:12 -36.23271 147.90339 40080 ft 432 kts 242°
2026-05-04 10:12 -36.26665 147.84239 40089 ft 431 kts 242°
2026-05-04 10:13 -36.30078 147.78090 40070 ft 433 kts 242°
2026-05-04 10:13 -36.33494 147.71924 40066 ft 433 kts 242°
2026-05-04 10:14 -36.36796 147.65846 40135 ft 427 kts 243°
2026-05-04 10:16 -36.47161 147.42364 40410 ft 455 kts 250°
2026-05-04 10:16 -36.48446 147.38771 40434 ft 453 kts 251°
2026-05-04 10:16 -36.50819 147.31499 40487 ft 453 kts 254°
2026-05-04 10:17 -36.53487 147.24463 40576 ft 461 kts 237°
2026-05-04 10:19 -36.69554 147.06388 37478 ft 431 kts 243°
2026-05-04 10:19 -36.71205 147.03330 37039 ft 430 kts 244°
2026-05-04 10:19 -36.72847 147.00197 36640 ft 432 kts 244°
2026-05-04 10:19 -36.74491 146.97044 36213 ft 433 kts 244°
2026-05-04 10:20 -36.76140 146.93904 35766 ft 433 kts 244°
2026-05-04 10:20 -36.77808 146.90749 35309 ft 435 kts 244°
2026-05-04 10:20 -36.79486 146.87609 34775 ft 435 kts 244°
2026-05-04 10:20 -36.81176 146.84470 34202 ft 436 kts 244°
2026-05-04 10:21 -36.82848 146.81363 33520 ft 437 kts 245°
2026-05-04 10:21 -36.84553 146.78187 32834 ft 438 kts 245°
2026-05-04 10:21 -36.86259 146.75013 32184 ft 441 kts 245°
2026-05-04 10:21 -36.87950 146.71866 31524 ft 444 kts 245°
2026-05-04 10:22 -36.91430 146.65383 30542 ft 448 kts 245°
2026-05-04 10:22 -36.93144 146.62180 30042 ft 450 kts 246°
2026-05-04 10:22 -36.94889 146.58915 29458 ft 453 kts 245°
2026-05-04 10:23 -36.96643 146.55629 28916 ft 454 kts 245°
2026-05-04 10:23 -36.98402 146.52338 28392 ft 456 kts 245°
2026-05-04 10:25 -37.10256 146.30103 25135 ft 405 kts 244°
2026-05-04 10:25 -37.11784 146.27221 25014 ft 390 kts 244°
2026-05-04 10:25 -37.13274 146.24401 24975 ft 387 kts 244°
2026-05-04 10:25 -37.14753 146.21587 24429 ft 387 kts 244°
2026-05-04 10:26 -37.16246 146.18736 23403 ft 395 kts 243°
2026-05-04 10:26 -37.17765 146.15832 22407 ft 398 kts 243°
2026-05-04 10:26 -37.19261 146.12990 21819 ft 391 kts 242°
2026-05-04 10:26 -37.20746 146.10179 21344 ft 381 kts 242°
2026-05-04 10:27 -37.22197 146.07437 20893 ft 372 kts 241°
2026-05-04 10:27 -37.23611 146.04760 20453 ft 364 kts 241°
2026-05-04 10:27 -37.24992 146.02137 20017 ft 357 kts 241°
2026-05-04 10:27 -37.26348 145.99558 19572 ft 350 kts 241°
2026-05-04 10:28 -37.27229 145.97875 19301 ft 346 kts 241°
2026-05-04 10:28 -37.28542 145.95369 18878 ft 341 kts 241°
2026-05-04 10:28 -37.29837 145.92895 18458 ft 336 kts 241°
2026-05-04 10:28 -37.31114 145.90457 18014 ft 331 kts 242°
2026-05-04 10:29 -37.32374 145.88056 17595 ft 326 kts 241°
2026-05-04 10:29 -37.33611 145.85698 17190 ft 321 kts 242°
2026-05-04 10:29 -37.34837 145.83366 16792 ft 318 kts 242°
2026-05-04 10:29 -37.36076 145.80992 16385 ft 332 kts 241°
2026-05-04 10:30 -37.37357 145.78537 15958 ft 337 kts 241°
2026-05-04 10:30 -37.38638 145.76083 15541 ft 335 kts 241°
2026-05-04 10:30 -37.39917 145.73643 15100 ft 333 kts 240°
2026-05-04 10:30 -37.41189 145.71218 14663 ft 331 kts 240°
2026-05-04 10:31 -37.42442 145.68826 14239 ft 323 kts 241°
2026-05-04 10:31 -37.43651 145.66516 13852 ft 317 kts 241°
2026-05-04 10:32 -37.51010 145.53587 11512 ft 298 kts 239°
2026-05-04 10:33 -37.52228 145.51491 11126 ft 296 kts 238°
2026-05-04 10:33 -37.53441 145.49403 10751 ft 293 kts 238°
2026-05-04 10:33 -37.54635 145.47346 10459 ft 286 kts 238°
2026-05-04 10:33 -37.55775 145.45385 10402 ft 270 kts 239°
2026-05-04 10:34 -37.56862 145.43511 10285 ft 260 kts 239°
2026-05-04 10:34 -37.57910 145.41704 10147 ft 251 kts 240°
2026-05-04 10:34 -37.58940 145.39921 9853 ft 251 kts 240°
2026-05-04 10:34 -37.59967 145.38141 9534 ft 251 kts 240°
2026-05-04 10:35 -37.60994 145.36361 9239 ft 251 kts 240°
2026-05-04 10:35 -37.62018 145.34585 8959 ft 250 kts 240°
2026-05-04 10:35 -37.63041 145.32814 8663 ft 249 kts 240°
2026-05-04 10:35 -37.64046 145.31072 8395 ft 249 kts 240°
2026-05-04 10:36 -37.65064 145.29312 8121 ft 247 kts 241°
2026-05-04 10:36 -37.66074 145.27560 7827 ft 247 kts 241°
2026-05-04 10:36 -37.67084 145.25806 7540 ft 246 kts 239°
2026-05-04 10:36 -37.68089 145.24062 7255 ft 244 kts 240°
2026-05-04 10:37 -37.69080 145.22343 6962 ft 241 kts 240°
2026-05-04 10:37 -37.70065 145.20635 6685 ft 240 kts 240°
2026-05-04 10:37 -37.71042 145.18936 6396 ft 239 kts 240°
2026-05-04 10:37 -37.72015 145.17240 6111 ft 236 kts 240°
2026-05-04 10:39 -37.77323 145.07985 5027 ft 219 kts 241°
2026-05-04 10:39 -37.78237 145.06376 4988 ft 229 kts 241°
2026-05-04 10:39 -37.79170 145.04746 4890 ft 227 kts 240°
2026-05-04 10:40 -37.80100 145.03127 4453 ft 229 kts 241°
2026-05-04 10:40 -37.81010 145.01461 4089 ft 227 kts 246°
2026-05-04 10:40 -37.81579 144.99641 3741 ft 219 kts 258°
2026-05-04 10:40 -37.81934 144.97793 3486 ft 214 kts 261°
2026-05-04 10:41 -37.82249 144.95963 3272 ft 211 kts 262°
2026-05-04 10:41 -37.82523 144.94159 3084 ft 206 kts 264°
2026-05-04 10:41 -37.82752 144.92405 2909 ft 199 kts 265°
2026-05-04 10:41 -37.82967 144.90698 2698 ft 194 kts 265°
2026-05-04 10:42 -37.83105 144.89029 2531 ft 186 kts 276°
2026-05-04 10:42 -37.82744 144.87556 2421 ft 175 kts 303°
2026-05-04 10:42 -37.81829 144.86640 2273 ft 168 kts 332°
2026-05-04 10:42 -37.80685 144.86276 1933 ft 171 kts 342°
2026-05-04 10:43 -37.79507 144.86066 1750 ft 169 kts 346°
2026-05-04 10:44 -37.73828 144.85099 1060 ft 102 kts 344°
2026-05-04 10:45 -37.73127 144.84929 1186 ft 109 kts 348°
2026-05-04 10:45 -37.72379 144.84722 1077 ft 112 kts 347°
2026-05-04 10:45 -37.71614 144.84609 847 ft 110 kts 355°
2026-05-04 10:45 -37.70874 144.84472 808 ft 107 kts 355°
2026-05-04 10:46 -37.70124 144.84354 750 ft 113 kts 358°
2026-05-04 10:46 -37.69314 144.84211 582 ft 116 kts 352°
2026-05-04 10:46 -37.68542 144.84088 403 ft 109 kts 354°
2026-05-04 10:46 -37.67842 144.83967 363 ft 84 kts 351°
2026-05-04 10:47 -37.67515 144.83902 374 ft 23 kts 351°
2026-05-04 10:47 -37.67226 144.83851 383 ft 46 kts 353°
2026-05-04 10:47 -37.66952 144.83860 391 ft 34 kts 15°
2026-05-04 10:47 -37.66855 144.83905 395 ft 0 kts 22°